EW5545 Weather Reports


Display with metric or nautical units.
time (UTC)temp
F
wind
direction
speed
MPH
gust
MPH
rain 1hr
in
rain 24hr
in
rain mn
in
humidity
%
barometer
mb
20260903092018 88 44 6.0 12.0 0.00 0.00 0.00 39 1016.3
20260903091510 88 55 2.0 7.0 0.00 0.00 0.00 39 1016.3
20260903091015 87 45 5.0 9.0 0.00 0.00 0.00 40 1016.3
20260903090516 87 40 5.0 13.0 0.00 0.00 0.00 39 1016.3
20260903090018 87 22 2.0 7.0 0.00 0.00 0.00 41 1016.3
20260903085511 86 57 6.0 12.0 0.00 0.00 0.00 41 1016.3
20260903084018 86 55 6.0 13.0 0.00 0.00 0.00 42 1016.3
20260903083517 86 46 4.0 8.0 0.00 0.00 0.00 43 1016.2
20260903083018 85 41 3.0 7.0 0.00 0.00 0.00 44 1016.2
20260903082018 85 46 5.0 8.0 0.00 0.00 0.00 45 1016.2
20260903081517 85 54 2.0 7.0 0.00 0.00 0.00 45 1016.2
20260903081020 85 28 3.0 7.0 0.00 0.00 0.00 46 1016.2
20260903080514 85 42 2.0 6.0 0.00 0.00 0.00 45 1016.1
20260903080018 84 45 4.0 8.0 0.00 0.00 0.00 46 1016.1
20260903075516 84 40 3.0 7.0 0.00 0.00 0.00 47 1016.2
20260903075017 84 49 5.0 9.0 0.00 0.00 0.00 47 1016.2
20260903074018 84 48 3.0 7.0 0.00 0.00 0.00 48 1016.1
20260903073018 83 34 2.0 6.0 0.00 0.00 0.00 50 1016.1
20260903072509 83 46 3.0 5.0 0.00 0.00 0.00 50 1016.0
20260903071517 82 56 2.0 7.0 0.00 0.00 0.00 51 1016.0
20260903071017 82 46 3.0 7.0 0.00 0.00 0.00 51 1016.0
20260903070517 82 43 3.0 7.0 0.00 0.00 0.00 51 1015.9
20260903070012 82 0 2.0 6.0 0.00 0.00 0.00 50 1016.0
20260903065017 82 28 1.0 3.0 0.00 0.00 0.00 50 1015.9
20260903064510 82 7 1.0 3.0 0.00 0.00 0.00 50 1015.9
20260903064012 81 45 1.0 3.0 0.00 0.00 0.00 51 1015.9
20260903063514 81 26 0.0 3.0 0.00 0.00 0.00 52 1015.9
20260903063018 80 326 2.0 5.0 0.00 0.00 0.00 52 1015.9
20260903062017 79 287 1.0 3.0 0.00 0.00 0.00 53 1015.9
20260903061516 79 309 1.0 3.0 0.00 0.00 0.00 53 1015.9
20260903061018 78 289 1.0 3.0 0.00 0.00 0.00 54 1015.9
20260903060517 78 42 1.0 3.0 0.00 0.00 0.00 54 1015.9
20260903060016 78 297 1.0 3.0 0.00 0.00 0.00 54 1015.9
20260903055518 77 224 0.0 3.0 0.00 0.00 0.00 54 1015.9
20260903055017 77 265 0.0 3.0 0.00 0.00 0.00 55 1015.9
20260903054519 76 250 1.0 3.0 0.00 0.00 0.00 55 1015.9
20260903054017 76 267 0.0 3.0 0.00 0.00 0.00 56 1015.9
20260903053516 75 262 0.0 3.0 0.00 0.00 0.00 57 1015.9
20260903052018 74 261 1.0 2.0 0.00 0.00 0.00 59 1015.8
20260903051517 74 35 0.0 1.0 0.00 0.00 0.00 60 1015.8
20260903051017 74 256 0.0 3.0 0.00 0.00 0.00 61 1015.7
20260903050517 74 273 0.0 3.0 0.00 0.00 0.00 62 1015.7
20260903050018 74 281 1.0 3.0 0.00 0.00 0.00 63 1015.8
20260903045517 74 254 1.0 2.0 0.00 0.00 0.00 64 1015.7
20260903045018 74 253 0.0 2.0 0.00 0.00 0.00 66 1015.7
20260903044516 74 253 0.0 2.0 0.00 0.00 0.00 67 1015.7
20260903044009 73 253 0.0 2.0 0.00 0.00 0.00 68 1015.6
20260903043517 73 253 0.0 1.0 0.00 0.00 0.00 69 1015.6
20260903042516 73 253 1.0 3.0 0.00 0.00 0.00 70 1015.5
20260903041531 73 253 0.0 1.0 0.00 0.00 0.00 71 1015.4
20260903040517 73 253 1.0 3.0 0.00 0.00 0.00 72 1015.5
20260903040017 73 253 1.0 3.0 0.00 0.00 0.00 72 1015.4
20260903035516 73 253 0.0 1.0 0.00 0.00 0.00 73 1015.5
20260903035017 73 253 0.0 1.0 0.00 0.00 0.00 73 1015.5
20260903034517 73 253 1.0 3.0 0.00 0.00 0.00 73 1015.5
20260903034017 73 254 1.0 3.0 0.00 0.00 0.00 73 1015.6
20260903033511 73 254 0.0 2.0 0.00 0.00 0.00 73 1015.6
20260903033018 73 254 0.0 1.0 0.00 0.00 0.00 73 1015.6
20260903032510 73 254 0.0 1.0 0.00 0.00 0.00 73 1015.7
20260903032018 73 254 0.0 2.0 0.00 0.00 0.00 73 1015.7
20260903031517 73 254 0.0 0.0 0.00 0.00 0.00 73 1015.7
20260903031017 73 254 0.0 0.0 0.00 0.00 0.00 72 1015.7
20260903030010 73 254 0.0 1.0 0.00 0.00 0.00 71 1015.7
20260903025516 74 254 0.0 0.0 0.00 0.00 0.00 70 1015.7
20260903024517 74 254 0.0 2.0 0.00 0.00 0.00 70 1015.8
20260903024011 75 9 1.0 3.0 0.00 0.00 0.00 69 1015.8
20260903023517 75 270 1.0 2.0 0.00 0.00 0.00 68 1015.8
20260903023017 75 289 1.0 2.0 0.00 0.00 0.00 68 1015.9
20260903022516 75 293 1.0 6.0 0.00 0.00 0.00 67 1015.9
20260903022017 75 281 2.0 6.0 0.00 0.00 0.00 67 1015.9
20260903021516 76 353 2.0 5.0 0.00 0.00 0.00 66 1015.9
20260903021010 76 31 1.0 3.0 0.00 0.00 0.00 66 1015.9
20260903020516 76 348 2.0 5.0 0.00 0.00 0.00 65 1016.0
20260903020016 76 329 2.0 5.0 0.00 0.00 0.00 65 1016.0
20260903015018 77 33 2.0 6.0 0.00 0.00 0.00 64 1016.0
20260903014017 77 43 1.0 3.0 0.00 0.00 0.00 64 1016.0
20260903013516 76 10 1.0 3.0 0.00 0.00 0.00 64 1016.0
20260903013017 76 328 0.0 2.0 0.00 0.00 0.00 65 1016.0
20260903012516 76 333 1.0 3.0 0.00 0.00 0.00 65 1016.1
20260903011517 76 4 1.0 3.0 0.00 0.00 0.00 67 1016.0
20260903011018 76 316 0.0 3.0 0.00 0.00 0.00 68 1016.1
20260903010515 76 315 1.0 3.0 0.00 0.00 0.00 69 1016.1
20260903010010 76 10 1.0 2.0 0.00 0.00 0.00 70 1016.1
20260903005017 76 268 0.0 2.0 0.00 0.00 0.00 70 1016.1
20260903004514 76 290 0.0 2.0 0.00 0.00 0.00 70 1016.1
20260903004017 76 325 0.0 3.0 0.00 0.00 0.00 70 1016.0
20260903003018 76 258 0.0 2.0 0.00 0.00 0.00 69 1016.1
20260903002516 76 257 0.0 2.0 0.00 0.00 0.00 68 1016.0
20260903002017 76 257 0.0 1.0 0.00 0.00 0.00 68 1016.0
20260903001517 76 257 0.0 2.0 0.00 0.00 0.00 67 1015.9
20260903001010 76 258 0.0 1.0 0.00 0.00 0.00 66 1016.0
20260903000516 76 258 0.0 5.0 0.00 0.00 0.00 66 1015.9
20260903000017 76 257 1.0 5.0 0.00 0.00 0.00 66 1015.9
20260902235508 76 253 0.0 2.0 0.00 0.00 0.00 66 1015.9
20260902234516 76 253 0.0 1.0 0.00 0.00 0.00 66 1016.0
20260902234017 76 253 0.0 1.0 0.00 0.00 0.00 66 1016.0
20260902233017 76 253 0.0 1.0 0.00 0.00 0.00 66 1016.0
20260902232017 76 253 0.0 3.0 0.00 0.00 0.00 67 1016.1
20260902231516 76 253 1.0 2.0 0.00 0.00 0.00 67 1016.2
20260902231017 76 254 2.0 3.0 0.00 0.00 0.00 66 1016.2
20260902230516 76 254 2.0 3.0 0.00 0.00 0.00 65 1016.2
20260902230017 76 255 2.0 3.0 0.00 0.00 0.00 65 1016.2
20260902225516 76 254 2.0 3.0 0.00 0.00 0.00 65 1016.3
20260902224517 76 256 2.0 3.0 0.00 0.00 0.00 65 1016.2
20260902224018 76 247 1.0 2.0 0.00 0.00 0.00 66 1016.3
20260902223516 76 247 1.0 3.0 0.00 0.00 0.00 66 1016.2
20260902223018 76 246 1.0 3.0 0.00 0.00 0.00 66 1016.3
20260902222017 76 245 1.0 3.0 0.00 0.00 0.00 66 1016.3
20260902221515 76 236 0.0 2.0 0.00 0.00 0.00 66 1016.3
20260902221018 76 246 1.0 3.0 0.00 0.00 0.00 65 1016.3
20260902220516 76 252 0.0 2.0 0.00 0.00 0.00 64 1016.4
20260902220012 77 7 0.0 3.0 0.00 0.00 0.00 64 1016.4
20260902215516 77 265 1.0 3.0 0.00 0.00 0.00 64 1016.5
20260902215017 77 262 0.0 2.0 0.00 0.00 0.00 63 1016.5
20260902214516 77 258 0.0 1.0 0.00 0.00 0.00 63 1016.6
20260902214009 77 257 0.0 1.0 0.00 0.00 0.00 63 1016.6
20260902213516 77 257 1.0 3.0 0.00 0.00 0.00 63 1016.5
20260902212518 77 258 0.0 1.0 0.00 0.00 0.00 63 1016.5
20260902212017 77 257 0.0 1.0 0.00 0.00 0.00 63 1016.5
20260902211517 77 257 0.0 2.0 0.00 0.00 0.00 63 1016.5
20260902211017 77 257 0.0 2.0 0.00 0.00 0.00 63 1016.4
20260902210515 77 257 0.0 2.0 0.00 0.00 0.00 62 1016.4
20260902204517 78 258 1.0 2.0 0.00 0.00 0.00 61 1016.5
20260902204017 78 258 0.0 1.0 0.00 0.00 0.00 61 1016.5
20260902203516 78 258 0.0 2.0 0.00 0.00 0.00 61 1016.5
20260902203018 78 261 0.0 1.0 0.00 0.00 0.00 61 1016.4
20260902202514 78 261 0.0 1.0 0.00 0.00 0.00 61 1016.4
20260902202018 78 261 0.0 1.0 0.00 0.00 0.00 61 1016.3
20260902201516 78 261 0.0 1.0 0.00 0.00 0.00 60 1016.3
20260902201009 78 261 0.0 1.0 0.00 0.00 0.00 60 1016.3
20260902200510 79 261 0.0 1.0 0.00 0.00 0.00 59 1016.2
20260902200018 79 261 1.0 2.0 0.00 0.00 0.00 59 1016.3
20260902195516 79 261 1.0 2.0 0.00 0.00 0.00 59 1016.3
20260902195009 79 261 0.0 1.0 0.00 0.00 0.00 58 1016.2
20260902194517 79 261 0.0 1.0 0.00 0.00 0.00 57 1016.2
20260902194014 79 261 0.0 1.0 0.00 0.00 0.00 56 1016.2
20260902193508 80 261 0.0 1.0 0.00 0.00 0.00 56 1016.2
20260902193017 80 261 0.0 1.0 0.00 0.00 0.00 56 1016.2
20260902192515 80 262 1.0 3.0 0.00 0.00 0.00 55 1016.2
20260902192017 80 262 1.0 2.0 0.00 0.00 0.00 56 1016.2
20260902191509 80 277 1.0 3.0 0.00 0.00 0.00 56 1016.2
20260902191017 80 151 0.0 1.0 0.00 0.00 0.00 56 1016.2
20260902190511 79 150 0.0 0.0 0.00 0.00 0.00 56 1016.2
20260902190018 79 150 0.0 1.0 0.00 0.00 0.00 56 1016.2
20260902185517 79 150 0.0 1.0 0.00 0.00 0.00 56 1016.1
20260902185018 80 149 0.0 2.0 0.00 0.00 0.00 56 1016.0
20260902184017 81 149 0.0 0.0 0.00 0.00 0.00 54 1015.9
20260902183516 81 149 0.0 0.0 0.00 0.00 0.00 54 1015.8
20260902183018 81 149 0.0 1.0 0.00 0.00 0.00 53 1015.8
20260902182016 82 149 0.0 2.0 0.00 0.00 0.00 53 1015.7
20260902181517 82 142 0.0 1.0 0.00 0.00 0.00 53 1015.6
20260902180516 82 142 0.0 0.0 0.00 0.00 0.00 53 1015.5
20260902180017 82 142 0.0 0.0 0.00 0.00 0.00 53 1015.5
20260902175514 82 142 0.0 0.0 0.00 0.00 0.00 54 1015.5
20260902175017 82 142 0.0 0.0 0.00 0.00 0.00 54 1015.5
20260902174516 82 142 0.0 0.0 0.00 0.00 0.00 53 1015.4
20260902174017 83 142 0.0 0.0 0.00 0.00 0.00 52 1015.5
20260902173516 83 142 0.0 0.0 0.00 0.00 0.00 52 1015.5
20260902173011 83 142 0.0 0.0 0.00 0.00 0.00 52 1015.6
20260902172516 83 142 0.0 0.0 0.00 0.00 0.00 52 1015.7
20260902171514 84 142 0.0 1.0 0.00 0.00 0.00 52 1015.8
20260902171009 84 142 0.0 0.0 0.00 0.00 0.00 51 1015.9
20260902170516 85 142 0.0 1.0 0.00 0.00 0.00 51 1016.0
20260902170018 85 142 1.0 2.0 0.00 0.00 0.00 50 1015.9
20260902165515 85 122 0.0 1.0 0.00 0.00 0.00 51 1015.9
20260902165018 85 99 0.0 2.0 0.00 0.00 0.00 50 1015.9
20260902164516 86 39 0.0 2.0 0.00 0.00 0.00 50 1016.0
20260902164017 86 128 0.0 2.0 0.00 0.00 0.00 50 1016.0
20260902163514 86 50 0.0 5.0 0.00 0.00 0.00 51 1016.0
20260902163017 86 47 1.0 5.0 0.00 0.00 0.00 51 1016.1
20260902162017 86 43 0.0 3.0 0.00 0.00 0.00 50 1016.2
20260902161516 86 36 1.0 3.0 0.00 0.00 0.00 49 1016.1
20260902161016 86 44 1.0 3.0 0.00 0.00 0.00 48 1016.1
20260902160510 86 46 3.0 3.0 0.00 0.00 0.00 49 1016.2
20260902160018 87 268 0.0 2.0 0.00 0.00 0.00 49 1016.2
20260902155517 87 175 0.0 3.0 0.00 0.00 0.00 50 1016.3
20260902155018 86 180 1.0 3.0 0.00 0.00 0.00 49 1016.3
20260902154016 85 46 2.0 6.0 0.00 0.00 0.00 53 1016.1
20260902153516 85 40 1.0 6.0 0.00 0.00 0.00 54 1016.1
20260902153017 85 42 5.0 9.0 0.00 0.00 0.00 54 1016.1
20260902151016 85 46 5.0 8.0 0.00 0.00 0.00 52 1016.2
20260902150017 85 45 3.0 7.0 0.00 0.00 0.00 53 1016.1
20260902145515 85 42 4.0 7.0 0.00 0.00 0.00 53 1016.2
20260902145017 85 42 6.0 9.0 0.00 0.00 0.00 53 1016.2
20260902144516 85 42 3.0 9.0 0.00 0.00 0.00 52 1016.1
20260902143515 86 50 5.0 10.0 0.00 0.00 0.00 53 1015.8
20260902142516 86 46 6.0 9.0 0.00 0.00 0.00 50 1016.0
20260902142017 86 43 6.0 10.0 0.00 0.00 0.00 52 1016.1
20260902141516 87 40 5.0 9.0 0.00 0.00 0.00 52 1016.1
20260902141018 87 52 6.0 12.0 0.00 0.00 0.00 52 1016.0
20260902140513 87 47 5.0 10.0 0.00 0.00 0.00 50 1016.0
20260902140014 87 32 5.0 10.0 0.00 0.00 0.00 51 1015.9
20260902135516 87 38 7.0 13.0 0.00 0.00 0.00 50 1016.0
20260902135011 87 40 5.0 12.0 0.00 0.00 0.00 48 1016.0
20260902134017 88 47 6.0 12.0 0.00 0.00 0.00 49 1016.2
20260902133514 88 45 3.0 10.0 0.00 0.00 0.00 49 1016.4
20260902133017 88 44 5.0 12.0 0.00 0.00 0.00 47 1016.4
20260902132509 89 49 5.0 12.0 0.00 0.00 0.00 48 1016.2
20260902132017 89 40 9.0 14.0 0.00 0.00 0.00 45 1016.0
20260902131516 90 46 3.0 14.0 0.00 0.00 0.00 46 1016.2
20260902131017 90 45 3.0 12.0 0.00 0.00 0.00 46 1016.2
20260902130510 90 47 5.0 12.0 0.00 0.00 0.00 47 1016.2
20260902130016 90 32 5.0 12.0 0.00 0.00 0.00 47 1016.3
20260902125508 89 51 6.0 13.0 0.00 0.00 0.00 49 1016.4
20260902125016 89 44 5.0 12.0 0.00 0.00 0.00 51 1016.5
20260902124516 89 50 6.0 12.0 0.00 0.00 0.00 48 1016.5
20260902124018 89 38 7.0 13.0 0.00 0.00 0.00 48 1016.5
20260902123516 89 46 7.0 12.0 0.00 0.00 0.00 48 1016.5
20260902123009 89 45 5.0 10.0 0.00 0.00 0.00 48 1016.5
20260902122016 89 45 5.0 15.0 0.00 0.00 0.00 49 1016.8
20260902121516 89 36 4.0 12.0 0.00 0.00 0.00 48 1016.8
20260902121016 90 38 7.0 12.0 0.00 0.00 0.00 48 1016.8
20260902120009 89 48 6.0 14.0 0.00 0.00 0.00 47 1016.9
20260902115516 89 50 7.0 15.0 0.00 0.00 0.00 48 1016.9
20260902115017 89 51 5.0 13.0 0.00 0.00 0.00 47 1016.9
20260902114517 89 41 7.0 15.0 0.00 0.00 0.00 45 1016.8
20260902113509 90 51 5.0 14.0 0.00 0.00 0.00 43 1016.8
20260902113017 90 43 7.0 12.0 0.00 0.00 0.00 42 1016.9
20260902112516 90 50 5.0 14.0 0.00 0.00 0.00 42 1016.9
20260902112017 90 35 5.0 15.0 0.00 0.00 0.00 43 1016.9
20260902111016 90 43 6.0 10.0 0.00 0.00 0.00 42 1017.0
20260902110509 91 39 7.0 12.0 0.00 0.00 0.00 42 1017.1
20260902110017 91 43 6.0 10.0 0.00 0.00 0.00 42 1017.1
20260902105509 90 40 6.0 9.0 0.00 0.00 0.00 43 1017.2
20260902105016 90 46 5.0 10.0 0.00 0.00 0.00 43 1017.1
20260902104017 90 39 8.0 18.0 0.00 0.00 0.00 44 1017.2
20260902103510 90 38 6.0 12.0 0.00 0.00 0.00 43 1017.1
20260902103017 91 47 5.0 10.0 0.00 0.00 0.00 43 1017.1
20260902102017 90 52 7.0 12.0 0.00 0.00 0.00 44 1017.3
20260902101516 91 29 5.0 8.0 0.00 0.00 0.00 43 1017.3
20260902101014 91 44 5.0 13.0 0.00 0.00 0.00 44 1017.3
20260902100516 91 52 4.0 8.0 0.00 0.00 0.00 43 1017.4
20260902100014 91 53 2.0 8.0 0.00 0.00 0.00 44 1017.4
20260902095516 90 69 3.0 7.0 0.00 0.00 0.00 45 1017.4
20260902095017 90 54 5.0 12.0 0.00 0.00 0.00 46 1017.5
20260902093510 91 42 5.0 9.0 0.00 0.00 0.00 44 1017.5
20260902093013 91 43 5.0 9.0 0.00 0.00 0.00 43 1017.5
20260902092510 91 48 3.0 9.0 0.00 0.00 0.00 43 1017.5